Weather History for K20V - December, 2012

Change the Weather History Date:

Monday, December 3, 2012

  Actual Average (KEGE) Record (KEGE)
Temperature  
Mean Temperature 29 °F -  
Max Temperature 44 °F 41 °F 61 °F (1980)
Min Temperature 14 °F 11 °F -14 °F (2004)
Degree Days  
Heating Degree Days 36    
Moisture  
Dew Point 10 °F    
Average Humidity 44    
Maximum Humidity 81    
Minimum Humidity 8    
Precipitation  
Precipitation 0.00 in - - ()
Sea Level Pressure  
Sea Level Pressure 30.15 in    
Wind  
Wind Speed 7 mph (NW)    
Max Wind Speed 20 mph    
Max Gust Speed 28 mph    
Averages and records for this station are not official NWS values.
T = Trace of Precipitation, MM = Missing Value Source: NWS Daily Summary

Daily Weather History Graph

Daily Weather History Graph

Search for Another Location

Airport or City:

Trip Planner

Search our weather history database for the weather conditions in past years. The results will help you decide how hot, cold, wet, or windy it might be!

Date:

Astronomy

Dec. 03, 2012 Rise Set
Actual Time 7:10 AM MST 4:40 PM MST
Civil Twilight 6:40 AM MST 5:10 PM MST
Nautical Twilight 6:06 AM MST 5:44 PM MST
Astronomical Twilight 5:34 AM MST 6:16 PM MST
Moon 9:29 PM MST (12/3) 10:35 AM MST (12/3)
Length of Visible Light 10h 29m
Length of Day
9h 29m
Waning Gibbous, 77% of the Moon is Illuminated
Dec 3
Waning Gibbous
Dec 6
Last Quarter
Dec 13
New
Dec 19
First Quarter
Dec 28
Full

Hourly Weather History & Observations

Time (MST) Temp. Windchill Dew Point Humidity Pressure Visibility Wind Dir Wind Speed Gust Speed Precip Events Conditions
12:15 AM 42.8 °F 37.5 °F 23.0 °F 46% 29.94 in - North 9.2 mph - N/A   Overcast
12:35 AM 42.8 °F - 23.0 °F 46% 29.94 in - Calm Calm - N/A   Overcast
12:55 AM 42.8 °F 41.1 °F 26.6 °F 53% 29.94 in - West 3.5 mph - N/A   Overcast
1:15 AM 41.0 °F 33.1 °F 26.6 °F 57% 29.94 in - WSW 15.0 mph 20.7 mph N/A   Overcast
1:35 AM 41.0 °F 32.8 °F 26.6 °F 57% 29.94 in - WSW 16.1 mph 23.0 mph N/A   Drizzle
1:55 AM 41.0 °F 33.5 °F 28.4 °F 61% 29.94 in - WSW 13.8 mph 26.5 mph N/A Rain Light Rain
2:15 AM 41.0 °F 31.9 °F 28.4 °F 61% 29.94 in - SW 19.6 mph 27.6 mph N/A Rain Rain
2:34 AM 41.0 °F 34.7 °F 28.4 °F 61% 29.96 in - WNW 10.4 mph 23.0 mph N/A   Light Drizzle
2:55 AM 33.8 °F 26.4 °F 28.4 °F 81% 30.01 in - WNW 9.2 mph - N/A Rain Light Rain
3:15 AM 33.8 °F 24.3 °F 28.4 °F 81% 29.99 in - NW 13.8 mph 18.4 mph N/A Snow Light Snow
3:35 AM 33.8 °F 25.8 °F 24.8 °F 70% 30.00 in - NW 10.4 mph 18.4 mph N/A   Overcast
3:55 AM 33.8 °F 27.7 °F 24.8 °F 70% 30.00 in - NNW 6.9 mph - N/A   Overcast
4:15 AM 33.8 °F 27.7 °F 23.0 °F 65% 30.02 in - NW 6.9 mph - N/A   Overcast
4:35 AM 33.8 °F 28.6 °F 23.0 °F 65% 30.04 in - West 5.8 mph - N/A   Overcast
4:54 AM 33.8 °F 24.3 °F 21.2 °F 60% 30.07 in - NNW 13.8 mph 19.6 mph N/A   Overcast
5:15 AM 33.8 °F 26.4 °F 23.0 °F 65% 30.07 in - NNW 9.2 mph - N/A   Overcast
5:35 AM 33.8 °F 25.3 °F 23.0 °F 65% 30.11 in - North 11.5 mph - N/A   Overcast
6:14 AM 32.0 °F 22.5 °F 21.2 °F 64% 30.13 in - NNW 12.7 mph 19.6 mph N/A   Overcast
6:35 AM 32.0 °F - 21.2 °F 64% 30.15 in - Calm Calm - N/A   Overcast
6:55 AM 32.0 °F 24.8 °F 23.0 °F 69% 30.16 in - SW 8.1 mph - N/A   Mostly Cloudy
7:15 AM 30.2 °F - 21.2 °F 69% 30.16 in - Calm Calm - N/A   Scattered Clouds
7:35 AM 30.2 °F 23.4 °F 17.6 °F 60% 30.16 in - NNW 6.9 mph - N/A   Scattered Clouds
7:54 AM 30.2 °F 24.3 °F 17.6 °F 60% 30.16 in - WNW 5.8 mph - N/A   Scattered Clouds
8:14 AM 32.0 °F 26.4 °F 17.6 °F 55% 30.17 in - North 5.8 mph - N/A   Clear
8:35 AM 33.8 °F 29.6 °F 17.6 °F 52% 30.16 in - West 4.6 mph - N/A   Clear
8:55 AM 33.8 °F - 15.8 °F 48% 30.16 in - Calm Calm - N/A   Clear
9:15 AM 33.8 °F 30.8 °F 14.0 °F 44% 30.16 in - North 3.5 mph - N/A   Clear
9:35 AM 35.6 °F 29.2 °F 15.8 °F 44% 30.16 in - NNE 8.1 mph - N/A   Clear
9:55 AM 35.6 °F 32.8 °F 15.8 °F 44% 30.16 in - North 3.5 mph - N/A   Clear
10:15 AM 37.4 °F 33.8 °F 14.0 °F 38% 30.16 in - ESE 4.6 mph - N/A   Clear
10:35 AM 35.6 °F - 12.2 °F 38% 30.15 in - Calm Calm - N/A   Clear
10:54 AM 37.4 °F - 12.2 °F 36% 30.15 in - Calm Calm - N/A   Clear
11:15 AM 39.2 °F 35.9 °F 12.2 °F 33% 30.15 in - ENE 4.6 mph - N/A   Clear
11:35 AM 39.2 °F 37.0 °F 12.2 °F 33% 30.14 in - SSW 3.5 mph - N/A   Clear
11:55 AM 41.0 °F - 10.4 °F 29% 30.14 in - Calm Calm - N/A   Clear
12:15 PM 41.0 °F 39.0 °F 8.6 °F 26% 30.14 in - NE 3.5 mph - N/A   Clear
12:35 PM 41.0 °F 39.0 °F 8.6 °F 26% 30.14 in - NE 3.5 mph - N/A   Clear
12:55 PM 41.0 °F 39.0 °F 3.2 °F 21% 30.14 in - WNW 3.5 mph - N/A   Clear
1:15 PM 42.8 °F 37.5 °F -13.0 °F 9% 30.15 in - West 9.2 mph - N/A   Clear
1:35 PM 44.6 °F 38.8 °F -14.8 °F 8% 30.15 in - West 11.5 mph - N/A   Clear
1:55 PM 42.8 °F 37.0 °F -14.8 °F 8% 30.15 in - NW 10.4 mph 16.1 mph N/A   Clear
2:15 PM 42.8 °F 36.6 °F -13.0 °F 9% 30.15 in - NW 11.5 mph 16.1 mph N/A   Clear
2:35 PM 42.8 °F 37.5 °F -7.6 °F 12% 30.16 in - NW 9.2 mph 17.3 mph N/A   Clear
2:55 PM 42.8 °F 37.5 °F -11.2 °F 10% 30.16 in - NW 9.2 mph - N/A   Clear
3:15 PM 41.0 °F 35.8 °F -4.0 °F 15% 30.17 in - NW 8.1 mph - N/A   Clear
3:35 PM 41.0 °F 34.7 °F -11.2 °F 11% 30.18 in - NW 10.4 mph - N/A   Clear
3:55 PM 37.4 °F 28.9 °F -7.6 °F 15% 30.19 in - NNW 13.8 mph 19.6 mph N/A   Clear
4:15 PM 35.6 °F 28.0 °F -0.4 °F 22% 30.19 in - NNW 10.4 mph - N/A   Clear
4:35 PM 33.8 °F 27.7 °F -4.0 °F 20% 30.19 in - NNW 6.9 mph - N/A   Clear
4:55 PM 33.8 °F 30.8 °F -4.0 °F 20% 30.20 in - ENE 3.5 mph - N/A   Clear
5:15 PM 32.0 °F 26.4 °F -5.8 °F 20% 30.21 in - NNE 5.8 mph - N/A   Clear
5:35 PM 32.0 °F 26.4 °F -4.0 °F 21% 30.21 in - ESE 5.8 mph - N/A   Clear
5:55 PM 30.2 °F 26.7 °F -4.0 °F 23% 30.22 in - NNE 3.5 mph - N/A   Scattered Clouds
6:15 PM 30.2 °F 26.7 °F -0.4 °F 27% 30.22 in - SW 3.5 mph - N/A   Scattered Clouds
6:35 PM 30.2 °F 25.4 °F 5.0 °F 34% 30.24 in - NW 4.6 mph - N/A   Scattered Clouds
6:55 PM 28.4 °F - 3.2 °F 34% 30.25 in - Calm Calm - N/A   Clear
7:15 PM 26.6 °F 21.2 °F 6.8 °F 43% 30.26 in - WNW 4.6 mph - N/A   Clear
7:35 PM 26.6 °F 22.6 °F 5.0 °F 40% 30.27 in - ENE 3.5 mph - N/A   Scattered Clouds
7:55 PM 23.0 °F 17.0 °F 5.0 °F 46% 30.27 in - East 4.6 mph - N/A   Scattered Clouds
8:15 PM 23.0 °F - 5.0 °F 46% 30.28 in - Calm Calm - N/A   Clear
8:35 PM 21.2 °F - 3.2 °F 46% 30.29 in - Calm Calm - N/A   Clear
8:54 PM 21.2 °F - 5.0 °F 50% 30.30 in - Calm Calm - N/A   Scattered Clouds
9:15 PM 21.2 °F 16.4 °F 5.0 °F 50% 30.31 in - SSW 3.5 mph - N/A   Scattered Clouds
9:35 PM 17.6 °F 12.3 °F 3.2 °F 53% 30.30 in - East 3.5 mph - N/A   Clear
9:55 PM 17.6 °F - 3.2 °F 53% 30.31 in - Calm Calm - N/A   Clear
10:14 PM 17.6 °F - 3.2 °F 53% 30.34 in - Calm Calm - N/A   Clear
10:34 PM 17.6 °F - 5.0 °F 58% 30.34 in - Calm Calm - N/A   Clear
11:15 PM 14.0 °F 8.2 °F 3.2 °F 62% 30.34 in - NE 3.5 mph - N/A   Clear
11:34 PM 15.8 °F - 3.2 °F 58% 30.35 in - Calm Calm - N/A   Clear
11:55 PM 14.0 °F - 3.2 °F 62% 30.36 in - Calm Calm - N/A   Clear